Location: Unspecified
(0.0000°N, 0.0000°E)
Time: 20:18:26
(UTC+02:00)

Cosmos 1733 Rocket - Visible Passes

Search period start: 28 April 2015 00:00
Search period end: 08 May 2015 00:00
Orbit: 605 x 629 km, 82.5° (Epoch: 27 April)

Date Brightness Start Highest point End Pass type
(mag) Time Alt. Az. Time Alt. Az. Time Alt. Az.
30 Apr 5.5 20:24:57 10° NW 20:28:37 26° W 20:32:12 10° SSW visible
01 May 6.1 06:56:30 10° SE 06:59:17 17° E 07:02:17 10° NE visible
01 May 6.4 20:43:37 10° WNW 20:45:22 12° W 20:46:48 10° WSW visible
02 May 4.8 07:11:55 10° SSE 07:16:00 37° E 07:20:07 10° NNE visible
03 May 3.2 07:28:12 10° S 07:32:39 86° E 07:37:06 10° N visible
05 May 6.0 06:25:31 10° SE 06:28:17 17° E 06:31:15 10° NE visible
06 May 4.7 06:40:55 10° SSE 06:45:00 36° E 06:49:06 10° NNE visible
07 May 3.1 06:57:11 10° S 07:01:39 85° E 07:06:05 10° N visible
